DW4881 Weather Reports


time (UTC)temp
C
wind
direction
speed
KPH
gust
KPH
rain 1hr
cm
rain 24hr
cm
rain mn
cm
humidity
%
barometer
mb
20260901131556 15 109 0.0 3.2 0.00 0.00 0.00 80 1008.5
20260901131054 15 109 0.0 4.8 0.00 0.00 0.00 81 1008.6
20260901130553 15 109 0.0 4.8 0.00 0.00 0.00 81 1008.5
20260901130052 15 109 0.0 3.2 0.00 0.00 0.00 81 1008.5
20260901125551 15 109 0.0 4.8 0.00 0.00 0.00 82 1008.5
20260901125051 15 109 1.6 4.8 0.00 0.00 0.00 81 1008.4
20260901124550 15 109 0.0 4.8 0.00 0.00 0.00 81 1008.4
20260901124050 15 109 0.0 4.8 0.00 0.00 0.00 81 1008.3
20260901123550 15 109 1.6 4.8 0.00 0.00 0.00 82 1008.4
20260901123050 15 109 0.0 4.8 0.00 0.00 0.00 82 1008.4
20260901122550 15 109 0.0 6.4 0.00 0.00 0.00 82 1008.5
20260901122049 15 109 1.6 6.4 0.00 0.00 0.00 82 1008.4
20260901121556 15 109 0.0 4.8 0.00 0.00 0.00 82 1008.4
20260901121050 14 109 1.6 4.8 0.00 0.00 0.00 82 1008.4
20260901120549 14 109 0.0 4.8 0.00 0.00 0.00 82 1008.4
20260901115547 15 109 3.2 6.4 0.00 0.00 0.00 82 1008.4
20260901115047 15 109 0.0 4.8 0.00 0.00 0.00 82 1008.4
20260901114547 14 109 1.6 4.8 0.00 0.00 0.00 82 1008.5
20260901114049 14 109 1.6 9.7 0.00 0.00 0.00 82 1008.4
20260901113547 14 109 1.6 9.7 0.00 0.00 0.00 82 1008.4
20260901113047 14 109 3.2 9.7 0.00 0.00 0.00 82 1008.5
20260901112546 14 109 3.2 9.7 0.00 0.00 0.00 82 1008.4
20260901112048 14 101 3.2 6.4 0.00 0.00 0.00 82 1008.3
20260901111551 14 101 1.6 6.4 0.00 0.00 0.00 82 1008.2
20260901111044 14 101 3.2 6.4 0.00 0.00 0.00 82 1008.2
20260901110543 14 101 1.6 6.4 0.00 0.00 0.00 82 1008.2
20260901110046 14 101 0.0 3.2 0.00 0.00 0.00 82 1008.1
20260901105543 14 101 0.0 9.7 0.00 0.00 0.00 82 1008.1
20260901105042 14 101 0.0 9.7 0.00 0.00 0.00 82 1008.1
20260901104542 14 101 1.6 4.8 0.00 0.00 0.00 81 1008.2
20260901104046 15 101 0.0 4.8 0.00 0.00 0.00 81 1008.1
20260901103540 15 101 0.0 1.6 0.00 0.00 0.00 81 1008.2
20260901103042 15 101 0.0 1.6 0.00 0.00 0.00 81 1008.1
20260901102539 15 101 0.0 3.2 0.00 0.00 0.00 80 1008.1
20260901102040 15 101 0.0 4.8 0.00 0.00 0.00 80 1008.1
20260901101540 15 101 1.6 4.8 0.00 0.00 0.00 80 1008.1
20260901101037 15 101 0.0 3.2 0.00 0.00 0.00 80 1008.0
20260901100541 15 101 0.0 4.8 0.00 0.00 0.00 80 1008.0
20260901100038 15 101 1.6 4.8 0.00 0.00 0.00 80 1008.0
20260901095535 15 101 0.0 3.2 0.00 0.00 0.00 80 1007.9
20260901095035 15 101 0.0 4.8 0.00 0.00 0.00 80 1007.9
20260901094534 15 101 0.0 6.4 0.00 0.00 0.00 80 1007.8
20260901094034 15 98 1.6 9.7 0.00 0.00 0.00 80 1007.8
20260901093532 15 109 0.0 9.7 0.00 0.00 0.00 80 1007.8
20260901093032 15 148 0.0 3.2 0.00 0.00 0.00 79 1007.8
20260901092533 15 148 0.0 4.8 0.00 0.00 0.00 79 1007.7
20260901092031 15 149 0.0 8.0 0.00 0.00 0.00 79 1007.5
20260901091533 15 149 1.6 8.0 0.00 0.00 0.00 79 1007.5
20260901091030 15 109 1.6 9.7 0.00 0.00 0.00 79 1007.5
20260901090533 15 109 3.2 9.7 0.00 0.00 0.00 79 1007.4
20260901090032 15 109 1.6 6.4 0.00 0.00 0.00 79 1007.3
20260901085528 15 109 0.0 6.4 0.00 0.00 0.00 80 1007.3
20260901085028 15 109 0.0 4.8 0.00 0.00 0.00 79 1007.3
20260901084528 15 109 0.0 11.3 0.00 0.00 0.00 79 1007.3
20260901084027 15 109 3.2 11.3 0.00 0.00 0.00 79 1007.3
20260901083531 16 109 1.6 9.7 0.00 0.00 0.00 79 1007.3
20260901083026 16 109 3.2 9.7 0.00 0.00 0.00 79 1007.5
20260901082526 16 107 3.2 9.7 0.00 0.00 0.00 79 1007.5
20260901082027 16 107 1.6 9.7 0.00 0.00 0.00 78 1007.4
20260901081524 16 104 3.2 9.7 0.00 0.00 0.00 78 1007.4
20260901081025 16 103 1.6 6.4 0.00 0.00 0.00 78 1007.3
20260901080523 16 103 3.2 6.4 0.00 0.00 0.00 78 1007.3
20260901080023 16 103 1.6 6.4 0.00 0.00 0.00 78 1007.3
20260901075522 16 103 1.6 9.7 0.00 0.00 0.00 77 1007.2
20260901075023 16 103 1.6 9.7 0.00 0.00 0.00 77 1007.2
20260901074520 16 107 1.6 11.3 0.00 0.00 0.00 77 1007.2
20260901074024 16 107 3.2 11.3 0.00 0.00 0.00 76 1007.2
20260901073518 16 96 6.4 11.3 0.00 0.00 0.00 76 1007.0
20260901073017 17 113 0.0 9.7 0.00 0.00 0.00 76 1007.0
20260901072515 17 115 3.2 9.7 0.00 0.00 0.00 75 1007.0
20260901072014 17 98 1.6 9.7 0.00 0.00 0.00 75 1006.9
20260901071514 17 98 1.6 12.9 0.00 0.00 0.00 74 1006.9
20260901071011 17 110 1.6 4.8 0.00 0.00 0.00 73 1006.8
20260901070512 17 110 1.6 4.8 0.00 0.00 0.00 73 1006.8
20260901070014 18 109 0.0 6.4 0.00 0.00 0.00 73 1006.7
20260901065509 18 109 1.6 9.7 0.00 0.00 0.00 72 1006.6
20260901065009 18 109 1.6 9.7 0.00 0.00 0.00 71 1006.6
20260901064508 18 109 3.2 9.7 0.00 0.00 0.00 71 1006.5
20260901064009 18 119 1.6 9.7 0.00 0.00 0.00 70 1006.2
20260901063510 18 134 1.6 8.0 0.00 0.00 0.00 71 1006.2
20260901063015 19 168 1.6 8.0 0.00 0.00 0.00 71 1006.1
20260901062509 19 150 0.0 3.2 0.00 0.00 0.00 71 1006.1
20260901062009 19 150 0.0 3.2 0.00 0.00 0.00 71 1006.0
20260901061508 19 150 0.0 0.0 0.00 0.00 0.00 71 1006.0
20260901061008 19 150 0.0 0.0 0.00 0.00 0.00 71 1005.9
20260901060508 20 150 0.0 0.0 0.00 0.00 0.00 70 1005.9
20260901060023 20 150 0.0 0.0 0.00 0.00 0.00 69 1005.8
20260901055506 20 150 0.0 0.0 0.00 0.00 0.00 68 1005.8
20260901055006 20 150 0.0 0.0 0.00 0.00 0.00 69 1005.7
20260901054506 20 150 0.0 0.0 0.00 0.00 0.00 67 1005.6
20260901054008 20 150 0.0 0.0 0.00 0.00 0.00 67 1005.5
20260901053508 20 150 0.0 0.0 0.00 0.00 0.00 67 1005.6
20260901053006 20 150 0.0 0.0 0.00 0.00 0.00 64 1005.6
20260901052506 20 150 0.0 0.0 0.00 0.00 0.00 65 1005.5
20260901052009 21 150 0.0 3.2 0.00 0.00 0.00 67 1005.5
20260901051507 21 150 0.0 3.2 0.00 0.00 0.00 66 1005.6
20260901051006 21 150 0.0 1.6 0.00 0.00 0.00 65 1005.5
20260901050505 21 150 0.0 1.6 0.00 0.00 0.00 65 1005.5
20260901050007 21 150 0.0 0.0 0.00 0.00 0.00 63 1005.4
20260901045504 21 150 0.0 0.0 0.00 0.00 0.00 63 1005.4
20260901045004 21 150 0.0 0.0 0.00 0.00 0.00 63 1005.4
20260901044507 21 150 0.0 0.0 0.00 0.00 0.00 62 1005.2
20260901044105 21 150 0.0 0.0 0.00 0.00 0.00 61 1005.2
20260901043503 21 150 0.0 0.0 0.00 0.00 0.00 62 1005.2
20260901043006 21 150 0.0 0.0 0.00 0.00 0.00 61 1005.2
20260901042503 22 150 0.0 0.0 0.00 0.00 0.00 60 1005.0
20260901042002 22 150 0.0 0.0 0.00 0.00 0.00 59 1004.9
20260901041502 22 150 0.0 0.0 0.00 0.00 0.00 58 1004.8
20260901041003 22 150 0.0 0.0 0.00 0.00 0.00 58 1004.8
20260901040503 23 150 0.0 0.0 0.00 0.00 0.00 57 1004.6
20260901040003 23 150 0.0 0.0 0.00 0.00 0.00 57 1004.6
20260901035502 23 150 0.0 0.0 0.00 0.00 0.00 56 1004.6
20260901035001 23 150 0.0 0.0 0.00 0.00 0.00 56 1004.5
20260901034501 23 150 0.0 0.0 0.00 0.00 0.00 55 1004.4
20260901034002 23 150 0.0 0.0 0.00 0.00 0.00 55 1004.3
20260901033503 23 150 0.0 0.0 0.00 0.00 0.00 55 1004.2
20260901033001 23 150 0.0 0.0 0.00 0.00 0.00 55 1004.2
20260901032501 23 150 0.0 0.0 0.00 0.00 0.00 55 1004.2
20260901032002 24 150 0.0 0.0 0.00 0.00 0.00 54 1004.1
20260901031501 24 150 0.0 0.0 0.00 0.00 0.00 54 1004.0
20260901031001 25 150 0.0 0.0 0.00 0.00 0.00 53 1004.0
20260901030500 25 150 0.0 0.0 0.00 0.00 0.00 52 1004.0
20260901030110 25 150 0.0 0.0 0.00 0.00 0.00 51 1003.9
20260901025600 25 150 0.0 1.6 0.00 0.00 0.00 50 1004.0
20260901025103 26 150 0.0 1.6 0.00 0.00 0.00 50 1004.0
20260901024606 26 150 0.0 3.2 0.00 0.00 0.00 48 1003.9
20260901024100 26 150 0.0 3.2 0.00 0.00 0.00 47 1004.0
20260901024002 26 150 0.0 8.0 0.00 0.00 0.00 47 1004.0
20260901023559 26 150 0.0 8.0 0.00 0.00 0.00 47 1004.0
20260901023105 26 150 0.0 4.8 0.00 0.00 0.00 47 1003.9
20260901022559 27 150 1.6 8.0 0.00 0.00 0.00 46 1003.9
20260901022059 27 155 1.6 8.0 0.00 0.00 0.00 45 1003.9
20260901021559 27 155 1.6 9.7 0.00 0.00 0.00 44 1003.9
20260901021059 28 154 3.2 9.7 0.00 0.00 0.00 44 1003.9
20260901020559 28 158 3.2 9.7 0.00 0.00 0.00 44 1003.9
20260901020100 28 167 3.2 8.0 0.00 0.00 0.00 43 1003.9
20260901015557 29 156 1.6 4.8 0.00 0.00 0.00 42 1003.9
20260901015057 29 214 0.0 6.4 0.00 0.00 0.00 41 1003.8
20260901014558 30 215 1.6 6.4 0.00 0.00 0.00 39 1003.8
20260901014058 30 215 0.0 4.8 0.00 0.00 0.00 36 1003.7
20260901013558 31 215 0.0 4.8 0.00 0.00 0.00 33 1003.7
20260901013102 31 215 0.0 4.8 0.00 0.00 0.00 35 1003.7
20260901012556 30 215 0.0 6.4 0.00 0.00 0.00 37 1003.7
20260901012055 30 215 0.0 6.4 0.00 0.00 0.00 35 1003.8
20260901011555 31 213 1.6 6.4 0.00 0.00 0.00 35 1003.8
20260901011055 31 214 1.6 8.0 0.00 0.00 0.00 37 1003.9
20260901010555 31 214 3.2 8.0 0.00 0.00 0.00 35 1003.9
20260901010108 31 209 1.6 4.8 0.00 0.00 0.00 33 1003.9
20260901005553 31 209 0.0 8.0 0.00 0.00 0.00 34 1003.9
20260901005052 31 209 0.0 8.0 0.00 0.00 0.00 34 1003.9
20260901004552 31 192 1.6 6.4 0.00 0.00 0.00 36 1003.9
20260901004051 31 220 0.0 8.0 0.00 0.00 0.00 34 1003.9
20260901003551 31 218 1.6 8.0 0.00 0.00 0.00 36 1004.0
20260901003051 31 162 3.2 8.0 0.00 0.00 0.00 33 1004.0
20260901002551 31 205 1.6 6.4 0.00 0.00 0.00 35 1004.0
20260901002050 32 213 0.0 6.4 0.00 0.00 0.00 34 1004.0
20260901001548 31 213 1.6 6.4 0.00 0.00 0.00 35 1004.0
20260901001051 31 213 1.6 9.7 0.00 0.00 0.00 36 1004.1
20260901000547 31 215 4.8 9.7 0.00 0.00 0.00 37 1004.1
20260901000046 31 295 1.6 8.0 0.00 0.00 0.00 36 1004.1
20260831235545 31 198 3.2 8.0 0.00 0.00 0.00 37 1004.1
20260831235045 31 198 0.0 8.0 0.00 0.00 0.00 39 1004.1
20260831234545 31 198 3.2 9.7 0.00 0.00 0.00 37 1004.2
20260831234044 31 212 1.6 8.0 0.00 0.00 0.00 38 1004.1
20260831233543 31 196 1.6 8.0 0.00 0.00 0.00 38 1004.1
20260831233047 31 149 0.0 4.8 0.00 0.00 0.00 37 1004.2
20260831232544 31 149 0.0 9.7 0.00 0.00 0.00 35 1004.1
20260831232041 31 148 1.6 9.7 0.00 0.00 0.00 37 1004.2
20260831231541 30 192 0.0 4.8 0.00 0.00 0.00 36 1004.2
20260831231045 31 195 1.6 6.4 0.00 0.00 0.00 35 1004.3
20260831230539 30 192 1.6 6.4 0.00 0.00 0.00 37 1004.3
20260831230038 30 201 0.0 6.4 0.00 0.00 0.00 36 1004.4
20260831225536 30 198 1.6 8.0 0.00 0.00 0.00 39 1004.5
20260831225037 30 99 0.0 6.4 0.00 0.00 0.00 36 1004.5
20260831224535 31 127 1.6 11.3 0.00 0.00 0.00 37 1004.6
20260831224034 31 215 4.8 11.3 0.00 0.00 0.00 37 1004.6
20260831223536 31 208 3.2 9.7 0.00 0.00 0.00 37 1004.7
20260831223032 30 197 3.2 8.0 0.00 0.00 0.00 39 1004.7
20260831222531 30 147 1.6 8.0 0.00 0.00 0.00 38 1004.8
20260831222029 31 194 1.6 4.8 0.00 0.00 0.00 38 1004.7
20260831221535 30 195 0.0 4.8 0.00 0.00 0.00 41 1004.8
20260831221027 30 195 1.6 4.8 0.00 0.00 0.00 40 1004.8
20260831220531 29 292 0.0 9.7 0.00 0.00 0.00 42 1004.9
20260831220027 29 292 1.6 9.7 0.00 0.00 0.00 41 1004.9
20260831215525 30 275 1.6 6.4 0.00 0.00 0.00 40 1005.0
20260831215025 30 275 3.2 6.4 0.00 0.00 0.00 40 1005.0
20260831214524 30 218 0.0 4.8 0.00 0.00 0.00 41 1005.1
20260831214022 30 221 3.2 6.4 0.00 0.00 0.00 41 1005.1
20260831213521 29 114 0.0 8.0 0.00 0.00 0.00 43 1005.2
20260831213019 29 137 1.6 8.0 0.00 0.00 0.00 41 1005.3
20260831212519 28 198 0.0 6.4 0.00 0.00 0.00 43 1005.3
20260831212018 28 128 0.0 4.8 0.00 0.00 0.00 42 1005.4
20260831211518 28 128 1.6 6.4 0.00 0.00 0.00 43 1005.4
20260831211017 28 128 3.2 6.4 0.00 0.00 0.00 42 1005.5
20260831210516 28 105 1.6 6.4 0.00 0.00 0.00 40 1005.4
20260831210018 29 238 1.6 6.4 0.00 0.00 0.00 42 1005.5
20260831205513 28 215 1.6 8.0 0.00 0.00 0.00 44 1005.6
20260831205014 27 215 1.6 8.0 0.00 0.00 0.00 45 1005.7
20260831204512 27 188 1.6 8.0 0.00 0.00 0.00 46 1005.7
20260831204011 28 148 3.2 8.0 0.00 0.00 0.00 42 1005.9
20260831203512 27 206 0.0 8.0 0.00 0.00 0.00 45 1005.9
20260831203009 27 134 0.0 8.0 0.00 0.00 0.00 45 1005.9
20260831202508 27 128 3.2 6.4 0.00 0.00 0.00 44 1006.0
20260831202008 27 136 0.0 6.4 0.00 0.00 0.00 45 1006.1
20260831201510 28 136 3.2 8.0 0.00 0.00 0.00 43 1006.1
20260831201008 28 215 1.6 8.0 0.00 0.00 0.00 44 1006.2
20260831200505 27 215 1.6 12.9 0.00 0.00 0.00 46 1006.2
20260831200003 28 158 4.8 12.9 0.00 0.00 0.00 44 1006.3
20260831195502 27 198 3.2 9.7 0.00 0.00 0.00 46 1006.3
20260831195001 27 230 1.6 6.4 0.00 0.00 0.00 44 1006.4
20260831194637 27 270 1.6 4.8 0.00 0.00 0.00 46 1006.4
20260831194059 26 275 1.6 4.8 0.00 0.00 0.00 47 1006.4
20260831193558 26 294 0.0 4.8 0.00 0.00 0.00 48 1006.5
20260831193101 25 294 3.2 4.8 0.00 0.00 0.00 49 1006.7
20260831192556 25 294 0.0 6.4 0.00 0.00 0.00 48 1006.7
20260831192056 26 294 1.6 6.4 0.00 0.00 0.00 48 1006.8
20260831191554 26 294 1.6 6.4 0.00 0.00 0.00 50 1006.9
20260831191056 26 294 0.0 6.4 0.00 0.00 0.00 48 1006.9
20260831190554 26 290 1.6 6.4 0.00 0.00 0.00 48 1007.0
20260831190057 25 227 1.6 6.4 0.00 0.00 0.00 51 1007.1
20260831185549 25 310 1.6 8.0 0.00 0.00 0.00 51 1007.3
20260831185048 25 304 4.8 8.0 0.00 0.00 0.00 51 1007.3
20260831184548 25 301 1.6 3.2 0.00 0.00 0.00 53 1007.3
20260831184051 24 301 0.0 4.8 0.00 0.00 0.00 53 1007.3
20260831183547 24 301 3.2 6.4 0.00 0.00 0.00 54 1007.5
20260831183054 25 301 3.2 6.4 0.00 0.00 0.00 53 1007.5
20260831182545 24 94 1.6 6.4 0.00 0.00 0.00 55 1007.6
20260831182049 24 94 1.6 6.4 0.00 0.00 0.00 53 1007.7
20260831181544 25 215 3.2 6.4 0.00 0.00 0.00 50 1007.8
20260831181042 25 209 0.0 4.8 0.00 0.00 0.00 52 1007.8
20260831180540 25 209 0.0 6.4 0.00 0.00 0.00 55 1007.8
20260831180046 24 246 3.2 6.4 0.00 0.00 0.00 54 1007.9
20260831175538 23 322 1.6 6.4 0.00 0.00 0.00 56 1008.0
20260831175037 23 58 1.6 3.2 0.00 0.00 0.00 57 1008.1
20260831174539 23 65 0.0 3.2 0.00 0.00 0.00 58 1008.2
20260831174036 22 65 0.0 4.8 0.00 0.00 0.00 59 1008.2
20260831173541 22 65 3.2 4.8 0.00 0.00 0.00 57 1008.2
20260831173036 23 333 1.6 4.8 0.00 0.00 0.00 57 1008.2
20260831172533 23 308 0.0 3.2 0.00 0.00 0.00 58 1008.2
20260831172032 22 306 0.0 6.4 0.00 0.00 0.00 63 1008.3
20260831171531 21 306 1.6 6.4 0.00 0.00 0.00 61 1008.4
20260831171031 22 306 1.6 6.4 0.00 0.00 0.00 59 1008.5
20260831170530 22 302 3.2 6.4 0.00 0.00 0.00 59 1008.5
20260831170038 21 309 0.0 6.4 0.00 0.00 0.00 63 1008.5
20260831165531 21 309 3.2 6.4 0.00 0.00 0.00 63 1008.5
20260831165025 20 5 1.6 4.8 0.00 0.00 0.00 65 1008.6
20260831164525 20 15 0.0 4.8 0.00 0.00 0.00 67 1008.7
20260831164026 18 12 1.6 6.4 0.00 0.00 0.00 69 1008.7
20260831163522 18 5 1.6 6.4 0.00 0.00 0.00 68 1008.8
20260831163021 18 343 1.6 4.8 0.00 0.00 0.00 69 1008.8
20260831162520 18 344 1.6 4.8 0.00 0.00 0.00 71 1008.9
20260831162019 17 344 1.6 6.4 0.00 0.00 0.00 71 1008.9
20260831161519 17 322 1.6 6.4 0.00 0.00 0.00 71 1008.9
20260831161017 17 355 3.2 6.4 0.00 0.00 0.00 72 1008.9
20260831160516 17 338 1.6 6.4 0.00 0.00 0.00 74 1009.0
20260831160016 16 344 0.0 12.9 0.00 0.00 0.00 74 1009.0
20260831155515 16 288 3.2 12.9 0.00 0.00 0.00 75 1009.1
20260831155015 16 304 1.6 8.0 0.00 0.00 0.00 76 1009.0
20260831154528 15 304 3.2 8.0 0.00 0.00 0.00 76 1009.0
20260831154018 15 304 3.2 11.3 0.00 0.00 0.00 77 1009.0
20260831153513 15 302 4.8 11.3 0.00 0.00 0.00 78 1009.0
20260831153013 15 292 1.6 8.0 0.00 0.00 0.00 78 1009.0
20260831152513 14 327 0.0 3.2 0.00 0.00 0.00 80 1009.0
20260831152015 14 327 0.0 3.2 0.00 0.00 0.00 80 1009.1
20260831151512 14 327 0.0 3.2 0.00 0.00 0.00 80 1009.2
20260831151015 14 327 0.0 4.8 0.00 0.00 0.00 81 1009.3
20260831150511 13 327 1.6 4.8 0.00 0.00 0.00 82 1009.4
20260831150012 13 327 0.0 3.2 0.00 0.00 0.00 82 1009.4
20260831145515 13 327 0.0 4.8 0.00 0.00 0.00 82 1009.3
20260831145010 13 327 3.2 4.8 0.00 0.00 0.00 83 1009.4
20260831144509 13 327 0.0 3.2 0.00 0.00 0.00 82 1009.2
20260831144015 13 327 0.0 3.2 0.00 0.00 0.00 82 1009.2
20260831143509 13 327 0.0 3.2 0.00 0.00 0.00 83 1009.2
20260831143008 12 327 0.0 3.2 0.00 0.00 0.00 83 1009.2
20260831142508 12 327 0.0 0.0 0.00 0.00 0.00 81 1009.2
20260831142011 12 327 0.0 0.0 0.00 0.00 0.00 82 1009.3
20260831141508 12 327 0.0 0.0 0.00 0.00 0.00 83 1009.3
20260831141006 12 327 0.0 0.0 0.00 0.00 0.00 81 1009.3
20260831140506 12 327 0.0 0.0 0.00 0.00 0.00 82 1009.3
20260831140006 12 327 0.0 0.0 0.00 0.00 0.00 81 1009.3
20260831135509 13 327 0.0 0.0 0.00 0.00 0.00 81 1009.2
20260831135005 13 327 0.0 0.0 0.00 0.00 0.00 80 1009.3
20260831134505 13 327 0.0 0.0 0.00 0.00 0.00 79 1009.2
20260831134006 13 327 0.0 0.0 0.00 0.00 0.00 79 1009.3
20260831133503 13 327 0.0 0.0 0.00 0.00 0.00 79 1009.3
20260831133008 13 327 0.0 0.0 0.00 0.00 0.00 77 1009.3
20260831132503 13 327 0.0 0.0 0.00 0.00 0.00 78 1009.4